Tracking 25995 objects as of 19-Aug-2022
HD Live streaming from Space Station
objects crossing your sky now

THOR ABLESTAR DEB

Track THOR ABLESTAR DEB now!
10-day predictions


NORAD ID: 410
Int'l Code: 1961-015EK
Perigee: 970.2 km
Apogee: 999.0 km
Inclination: 66.7 °
Period: 104.6 minutes
Semi major axis: 7355 km
RCS: 0.1102 m2 (medium)
Launch date: June 29, 1961
Source: United States (US)
Launch site: AIR FORCE EASTERN TEST RANGE (AFETR)

Note: This is SATELLITE DEBRIS
aabbcc
Your satellite tracking list
Your tracking list is empty




NASA's NSSDC Master Catalog

Two Line Element Set (TLE):
1 00410U 61015EK  22230.94685520  .00000007  00000-0  83949-4 0  9990
2 00410  66.6934 145.0238 0019547 228.9660 205.9419 13.76186128 67649
Source of the keplerian elements: AFSPC